• In Kazakhstan
  • List of Countries
  • For 7 days
  • Water Temperature
  • Weather Map
  • News
  • Weather Widgets
  • user-avatar
    Login

    Hourly Weather Stepanakert

    Today, 22 November, Friday

    Time Temperature Precipitation Wind Pressure Humidity
    00:00 +3°C° 0.6 mm 1 mps 698 mmHg 96%
    01:00 +3°C° 0.5 mm 1 mps 698 mmHg 96%
    02:00 +3°C° 0.5 mm 1 mps 697 mmHg 97%
    03:00 +2°C° 0 mm 1 mps 697 mmHg 96%
    04:00 +2°C° 0.4 mm 1 mps 697 mmHg 96%
    05:00 +2°C° 0.4 mm 1 mps 698 mmHg 96%
    06:00 +2°C° 0.4 mm 1 mps 698 mmHg 96%
    07:00 +2°C° 0.4 mm 1 mps 698 mmHg 95%
    08:00 +2°C° 0.4 mm 1 mps 699 mmHg 94%
    09:00 +2°C° 0.4 mm 2 mps 699 mmHg 94%
    10:00 +2°C° 0.6 mm 2 mps 699 mmHg 94%
    11:00 +2°C° 0.6 mm 2 mps 699 mmHg 93%
    12:00 +2°C° 0.6 mm 2 mps 699 mmHg 93%
    13:00 +2°C° 0.5 mm 2 mps 699 mmHg 94%
    14:00 +1°C° 0.5 mm 2 mps 698 mmHg 95%
    15:00 +1°C° 0.5 mm 2 mps 698 mmHg 95%
    16:00 +1°C° 0.4 mm 2 mps 699 mmHg 96%
    17:00 +1°C° 0.4 mm 2 mps 699 mmHg 96%
    18:00 +1°C° 0.4 mm 1 mps 699 mmHg 97%
    19:00 +1°C° 0.4 mm 1 mps 700 mmHg 97%
    20:00 +1°C° 0.4 mm 1 mps 700 mmHg 97%
    21:00 +1°C° 0.4 mm 1 mps 700 mmHg 97%
    22:00 +1°C° 0.3 mm 1 mps 700 mmHg 97%
    23:00 0°C° 0.3 mm 1 mps 700 mmHg 97%

    Tomorrow, 23 November, Saturday

    Time Temperature Precipitation Wind Pressure Humidity
    00:00 0°C° 0.3 mm 1 mps 700 mmHg 97%
    01:00 0°C° 0.2 mm 1 mps 700 mmHg 96%
    02:00 0°C° 0.2 mm 1 mps 700 mmHg 96%
    03:00 0°C° 0.2 mm 1 mps 700 mmHg 96%
    04:00 0°C° 0.2 mm 1 mps 700 mmHg 96%
    05:00 -1°C° 0.2 mm 1 mps 700 mmHg 96%
    06:00 -1°C° 0.2 mm 1 mps 700 mmHg 96%
    07:00 0°C° 0.1 mm 1 mps 700 mmHg 94%
    08:00 0°C° 0.1 mm 1 mps 701 mmHg 92%
    09:00 0°C° 0.1 mm 1 mps 701 mmHg 90%
    10:00 +1°C° 0 mm 1 mps 701 mmHg 90%
    11:00 +1°C° 0 mm 1 mps 700 mmHg 89%
    12:00 -1°C° 0 mm 2 mps 700 mmHg 89%
    13:00 -1°C° 0 mm 2 mps 700 mmHg 90%
    14:00 +1°C° 0 mm 1 mps 699 mmHg 90%
    15:00 +1°C° 0 mm 1 mps 699 mmHg 90%
    16:00 +1°C° 0 mm 1 mps 699 mmHg 92%
    17:00 +1°C° 0 mm 1 mps 699 mmHg 93%
    18:00 0°C° 0 mm 1 mps 699 mmHg 94%
    19:00 0°C° 0 mm 1 mps 699 mmHg 94%
    20:00 0°C° 0 mm 1 mps 700 mmHg 94%
    21:00 0°C° 0 mm 1 mps 700 mmHg 94%
    22:00 -1°C° 0 mm 0 mps 700 mmHg 94%
    23:00 -1°C° 0 mm 0 mps 700 mmHg 93%

    Day after tomorrow, 24 November, Sunday

    Time Temperature Precipitation Wind Pressure Humidity
    00:00 -2°C° 0 mm 0 mps 700 mmHg 93%
    01:00 -2°C° 0 mm 0 mps 699 mmHg 92%
    02:00 -2°C° 0 mm 0 mps 699 mmHg 92%
    03:00 -2°C° 0 mm 0 mps 699 mmHg 91%
    04:00 -3°C° 0 mm 0 mps 699 mmHg 90%
    05:00 -3°C° 0 mm 0 mps 699 mmHg 88%
    06:00 -3°C° 0 mm 0 mps 698 mmHg 87%
    07:00 -2°C° 0 mm 0 mps 699 mmHg 83%
    08:00 -1°C° 0 mm 0 mps 699 mmHg 80%
    09:00 0°C° 0 mm 0 mps 699 mmHg 77%
    10:00 +2°C° 0 mm 1 mps 699 mmHg 79%
    11:00 +2°C° 0 mm 1 mps 699 mmHg 80%
    12:00 +3°C° 0 mm 1 mps 698 mmHg 81%
    13:00 +3°C° 0 mm 1 mps 698 mmHg 82%
    14:00 +3°C° 0 mm 1 mps 698 mmHg 82%
    15:00 +3°C° 0 mm 1 mps 697 mmHg 83%
    16:00 +2°C° 0 mm 1 mps 698 mmHg 85%
    17:00 +1°C° 0 mm 0 mps 698 mmHg 87%
    18:00 0°C° 0 mm 0 mps 698 mmHg 89%
    19:00 0°C° 0 mm 0 mps 698 mmHg 89%
    20:00 -1°C° 0 mm 0 mps 698 mmHg 89%
    21:00 -1°C° 0 mm 0 mps 697 mmHg 89%
    22:00 -1°C° 0 mm 0 mps 697 mmHg 87%
    23:00 -1°C° 0 mm 0 mps 697 mmHg 86%

    25 November, Monday

    Time Temperature Precipitation Wind Pressure Humidity
    00:00 -1°C° 0 mm 0 mps 697 mmHg 85%
    01:00 -1°C° 0 mm 0 mps 697 mmHg 84%
    02:00 -1°C° 0 mm 0 mps 696 mmHg 83%
    03:00 -1°C° 0 mm 0 mps 696 mmHg 82%
    04:00 -1°C° 0 mm 0 mps 696 mmHg 82%
    05:00 -1°C° 0 mm 0 mps 696 mmHg 81%
    06:00 -1°C° 0 mm 0 mps 696 mmHg 80%
    07:00 0°C° 0 mm 0 mps 696 mmHg 78%
    08:00 +1°C° 0 mm 0 mps 697 mmHg 75%
    09:00 +2°C° 0 mm 0 mps 697 mmHg 73%
    10:00 +3°C° 0 mm 0 mps 697 mmHg 74%
    11:00 +4°C° 0 mm 1 mps 696 mmHg 74%
    12:00 +5°C° 0 mm 1 mps 696 mmHg 75%
    13:00 +5°C° 0 mm 1 mps 696 mmHg 77%
    14:00 +5°C° 0 mm 1 mps 695 mmHg 78%
    15:00 +5°C° 0 mm 1 mps 695 mmHg 80%
    16:00 +3°C° 0 mm 0 mps 695 mmHg 82%
    17:00 +2°C° 0 mm 0 mps 695 mmHg 84%
    18:00 +1°C° 0 mm 0 mps 695 mmHg 86%
    19:00 +1°C° 0 mm 0 mps 695 mmHg 85%
    20:00 +1°C° 0 mm 0 mps 695 mmHg 84%
    21:00 +1°C° 0 mm 0 mps 695 mmHg 83%
    22:00 +1°C° 0 mm 0 mps 695 mmHg 82%
    23:00 +1°C° 0 mm 0 mps 694 mmHg 81%

    26 November, Tuesday

    Time Temperature Precipitation Wind Pressure Humidity
    00:00 +1°C° 0 mm 0 mps 694 mmHg 80%
    01:00 +1°C° 0 mm 0 mps 694 mmHg 80%
    02:00 +1°C° 0 mm 0 mps 694 mmHg 79%
    03:00 +1°C° 0 mm 0 mps 694 mmHg 79%
    04:00 +1°C° 0 mm 0 mps 694 mmHg 78%
    05:00 +1°C° 0 mm 0 mps 694 mmHg 78%
    06:00 +1°C° 0 mm 0 mps 694 mmHg 77%
    07:00 +2°C° 0 mm 0 mps 694 mmHg 74%
    08:00 +3°C° 0 mm 0 mps 694 mmHg 71%
    09:00 +4°C° 0 mm 0 mps 695 mmHg 68%
    10:00 +5°C° 0 mm 0 mps 695 mmHg 68%
    11:00 +6°C° 0 mm 1 mps 694 mmHg 68%
    12:00 +7°C° 0 mm 1 mps 694 mmHg 68%
    13:00 +7°C° 0 mm 1 mps 694 mmHg 71%
    14:00 +7°C° 0 mm 1 mps 693 mmHg 73%
    15:00 +6°C° 0 mm 1 mps 693 mmHg 75%
    16:00 +5°C° 0 mm 0 mps 693 mmHg 77%
    17:00 +4°C° 0 mm 0 mps 693 mmHg 79%
    18:00 +3°C° 0 mm 0 mps 693 mmHg 81%
    19:00 +3°C° 0 mm 0 mps 693 mmHg 81%
    20:00 +3°C° 0 mm 0 mps 693 mmHg 80%
    21:00 +3°C° 0 mm 0 mps 693 mmHg 79%
    22:00 +3°C° 0 mm 0 mps 693 mmHg 79%
    23:00 +3°C° 0 mm 0 mps 692 mmHg 80%

    27 November, Wednesday

    Time Temperature Precipitation Wind Pressure Humidity
    00:00 +2°C° 0 mm 0 mps 692 mmHg 80%
    01:00 +2°C° 0 mm 0 mps 692 mmHg 80%
    02:00 +2°C° 0 mm 0 mps 692 mmHg 79%
    03:00 +2°C° 0 mm 0 mps 692 mmHg 79%
    04:00 +2°C° 0 mm 0 mps 692 mmHg 77%
    05:00 +3°C° 0 mm 0 mps 692 mmHg 76%
    06:00 +4°C° 0 mm 1 mps 692 mmHg 75%
    07:00 +4°C° 0 mm 0 mps 692 mmHg 73%
    08:00 +5°C° 0 mm 0 mps 693 mmHg 71%
    09:00 +6°C° 0 mm 0 mps 693 mmHg 69%
    10:00 +6°C° 0 mm 0 mps 692 mmHg 69%
    11:00 +8°C° 0 mm 1 mps 692 mmHg 68%
    12:00 +9°C° 0 mm 1 mps 691 mmHg 67%
    13:00 +9°C° 0 mm 1 mps 691 mmHg 69%
    14:00 +8°C° 0 mm 1 mps 691 mmHg 71%
    15:00 +8°C° 0 mm 1 mps 691 mmHg 73%
    16:00 +6°C° 0 mm 0 mps 691 mmHg 75%
    17:00 +6°C° 0 mm 0 mps 691 mmHg 77%
    18:00 +5°C° 0 mm 0 mps 691 mmHg 80%
    19:00 +5°C° 0 mm 0 mps 692 mmHg 79%
    20:00 +5°C° 0 mm 0 mps 692 mmHg 77%
    21:00 +5°C° 0 mm 0 mps 692 mmHg 76%
    22:00 +5°C° 0 mm 0 mps 692 mmHg 77%
    23:00 +5°C° 0 mm 0 mps 692 mmHg 77%
    Show more